EGGP

Liverpool John Lennon Airport

Airport
ICAO code
EGGP
IATA Code
LPL
Summary
ICAO Region
EUR
ICAO Territory
Location

Speke, Liverpool, England

Serving
Liverpool
Elevation
80 ft
Coordinates
53° 20' 4" N , 2° 51' 10" W
KCC
Metar
EGGP 151820Z 29024KT 9000 -RA FEW024 SCT028 BKN032 08/05 Q1006 RERA

Description

International airport serving Liverpool and environs.

Climatology

Temperate Marine climate/Oceanic climate (Köppen climate classification Cfb). Moderately cool summer and comparatively warm winter with a temperature range of only 14°C. Prevailing south-westerly winds from the Atlantic Ocean.

Runways

Designator Length Width Surface Rops
9/27 2286 46 ASP Yes/Yes

Airport map

Aerial View

SKYbrary Partners:

Safety knowledge contributed by: